Wind_Speed
30 30 31 31 32 33 33 34 35 36 36 37 38 38 39 40 40 40 41 41 42 42 42 43 43 43 43 44 44 44 44 44 44 44 44 44 43 43 43 43 43 43 43
30 31 31 32 33 33 34 34 35 36 37 38 39 40 41 41 42 43 43 44 45 45 46 46 47 47 47 47 47 47 47 47 47 47 47 47 47 47 46 46 46 46 46
30 30 31 32 33 33 34 35 36 37 37 38 39 40 41 42 43 44 44 45 45 46 48 49 49 50 51 51 51 51 51 51 51 51 51 50 50 50 50 49 49 49 49
30 31 31 32 33 34 34 35 36 37 38 39 40 40 41 42 43 44 44 45 46 47 48 50 51 52 52 53 54 54 54 54 54 54 54 53 53 53 52 52 52 51 51
31 32 32 33 34 35 35 36 37 38 39 40 41 41 42 42 43 44 45 46 47 48 49 50 51 53 54 55 55 56 56 56 56 56 56 56 56 56 55 55 55 54 54
32 32 33 34 35 35 36 37 38 39 39 40 41 41 42 43 44 45 46 47 47 48 50 50 52 53 54 56 57 57 58 59 59 59 59 59 59 59 59 58 58 58 57
33 34 34 35 36 37 37 38 40 40 41 42 43 43 43 44 45 45 46 47 48 49 51 52 53 54 56 57 58 59 60 61 62 62 62 62 62 62 62 62 61 61 60
34 35 36 37 38 38 39 40 42 42 43 44 46 46 45 45 46 47 48 49 51 52 54 55 57 58 59 60 62 63 64 65 66 66 66 66 66 66 66 65 65 65 64
37 37 38 38 39 41 41 43 44 45 46 47 49 51 51 51 50 50 52 54 55 57 58 59 61 63 64 65 66 68 69 70 71 71 72 72 71 71 71 70 70 69 68
38 39 40 41 42 43 44 45 47 48 50 50 52 54 56 57 58 57 56 58 61 63 64 65 66 68 69 71 72 73 74 75 76 77 77 77 77 76 76 75 75 74 73
41 42 43 44 45 46 47 48 50 51 53 54 56 57 59 61 64 66 65 64 65 67 69 71 73 74 74 75 76 78 79 80 81 82 82 82 82 81 81 80 79 78 77
43 44 45 46 47 49 50 52 53 55 56 58 60 62 64 66 68 70 72 72 73 73 75 76 78 80 81 82 82 82 83 85 86 87 87 87 87 86 85 85 84 83 82
45 46 47 49 50 51 53 55 56 58 60 62 64 66 68 71 73 75 78 78 79 79 80 81 82 83 85 87 87 87 87 88 89 90 90 91 91 90 90 89 88 86 85
48 49 50 51 53 54 56 58 60 62 64 66 68 70 72 75 77 79 81 83 84 83 82 82 83 85 86 88 89 89 90 89 89 89 90 90 90 90 90 90 89 88 87
50 51 52 54 56 57 59 61 63 65 67 69 72 74 76 78 79 81 82 84 85 86 83 81 81 81 83 84 84 85 86 85 84 84 84 85 86 86 87 87 87 87 87
52 54 55 57 58 60 62 64 66 68 70 73 75 77 78 79 80 80 81 81 82 83 81 76 75 75 76 76 76 76 76 75 74 74 75 77 78 79 80 81 82 83 83
54 56 58 59 61 63 65 67 69 71 73 75 76 77 78 78 78 78 78 77 77 77 77 72 71 70 70 69 67 67 66 66 66 67 68 70 72 73 74 75 76 77 78
57 59 60 62 64 66 68 70 72 74 75 76 76 77 76 76 75 74 74 73 72 72 72 68 64 63 62 62 61 61 61 62 61 61 62 63 64 65 66 67 68 70 71
59 61 63 65 67 69 71 73 74 75 76 76 76 75 74 73 72 71 70 68 67 66 65 63 59 56 56 57 57 57 57 56 56 56 56 56 57 58 59 60 61 62 65
62 64 65 67 70 71 73 74 75 76 76 74 73 72 71 70 68 67 65 63 62 61 60 58 55 53 52 53 53 53 52 52 52 52 51 51 51 52 54 55 55 56 58
64 66 68 70 72 73 74 75 75 75 74 72 70 69 67 66 64 63 61 59 58 57 55 54 52 51 50 50 49 49 48 48 47 47 47 47 48 48 50 51 52 52 53
66 68 70 72 72 73 74 75 75 74 72 69 67 66 64 62 60 59 57 56 55 54 52 52 51 49 47 47 46 46 45 44 43 43 44 43 44 43 45 46 48 50 51
68 70 71 72 73 74 75 74 73 72 69 67 65 63 60 58 57 56 54 53 52 51 51 50 49 47 46 45 45 43 42 41 39 39 40 39 40 40 41 42 44 45 47
70 71 73 73 74 74 74 73 71 69 67 65 63 60 58 56 54 53 52 50 49 48 48 47 46 45 44 43 43 41 40 39 38 37 38 37 37 38 39 40 41 42 43
71 73 73 74 74 73 72 71 69 67 64 61 59 57 55 53 51 51 50 48 46 45 44 44 43 42 41 40 40 39 38 38 37 35 36 36 36 36 37 37 38 39 40
73 73 74 74 73 72 70 68 67 65 61 59 56 54 52 50 49 48 47 46 43 42 41 41 40 39 38 38 38 38 37 37 35 33 33 34 34 35 35 35 37 38 39
Wind_Direction
285 284 283 282 281 280 279 278 277 276 275 274 273 272 271 270 270 269 269 269 269 269 269 269 269 269 269 269 270 270 270 271 271 271 272 272 272 273 273 273 273 273 273
286 285 285 284 283 282 281 280 279 278 277 276 275 274 274 273 272 272 271 270 270 270 270 270 269 269 269 269 269 269 269 269 270 270 270 271 271 271 271 272 272 272 272
288 287 287 286 285 284 283 282 281 280 279 278 277 276 276 275 275 274 273 273 272 272 271 271 270 270 270 269 269 269 269 269 269 269 269 270 270 270 270 270 270 271 271
289 288 287 286 286 285 285 284 283 282 281 280 279 278 278 277 277 276 276 275 274 273 272 272 272 271 271 271 270 270 270 269 269 269 268 268 269 269 269 269 269 269 270
290 289 288 288 287 287 286 286 285 284 283 282 281 281 280 279 278 278 277 276 276 275 274 273 273 273 273 272 271 271 270 270 269 269 268 268 268 268 268 268 268 268 268
291 290 290 289 288 288 287 286 286 285 284 283 282 282 281 280 280 279 278 278 277 277 276 275 274 274 273 273 272 272 271 270 269 269 268 268 268 267 267 267 267 267 267
292 292 291 290 290 289 289 288 287 286 286 285 284 282 282 281 280 279 279 278 278 277 276 276 275 274 273 273 272 272 271 271 270 269 268 268 267 267 266 266 266 266 266
294 293 292 292 291 291 290 289 289 288 287 287 286 284 282 280 280 280 280 279 279 278 277 277 276 275 273 273 272 271 271 270 270 269 268 267 267 267 266 265 265 265 265
295 294 293 293 292 292 291 291 290 289 289 288 288 287 286 284 280 280 280 280 279 278 277 276 276 275 275 274 272 271 270 270 269 269 268 267 266 266 265 265 264 264 263
295 294 294 294 293 292 292 291 291 290 290 289 289 289 288 287 285 283 281 281 281 280 279 277 276 275 274 274 273 272 271 269 268 268 267 266 266 265 265 264 263 263 262
295 295 295 294 293 292 292 292 292 292 291 291 290 290 289 289 288 287 285 283 282 282 281 280 279 277 275 273 272 271 270 269 268 267 266 266 265 264 264 263 263 262 261
296 295 295 294 293 293 293 293 293 293 292 292 292 292 291 291 290 289 288 286 285 283 282 281 280 279 277 275 273 271 270 269 268 267 266 265 264 263 262 262 261 261 260
296 296 296 296 295 295 295 295 295 295 294 294 294 294 293 293 292 291 290 288 287 285 284 283 282 280 278 276 274 272 270 269 268 266 265 264 263 262 261 261 260 260 259
296 296 296 296 296 296 296 296 296 296 296 295 295 295 294 294 293 292 291 290 288 286 285 284 283 281 279 278 276 274 273 270 268 267 265 264 263 261 260 260 259 258 258
297 297 297 297 297 297 297 297 298 297 297 297 296 296 295 295 294 293 292 291 290 288 286 285 284 282 281 279 278 276 275 273 271 268 266 264 263 261 259 258 257 256 256
298 298 298 299 299 299 299 299 299 299 299 298 298 297 297 296 295 294 292 291 291 290 289 288 286 284 282 281 279 278 277 275 273 271 268 266 264 262 260 258 257 256 255
299 300 300 300 300 301 301 301 301 301 300 300 299 299 298 296 295 294 293 292 291 291 290 289 287 285 283 282 280 279 278 277 275 273 270 268 265 263 261 259 257 255 254
301 301 302 302 302 302 303 303 303 302 302 301 301 300 298 297 296 295 294 293 292 291 291 290 288 286 284 282 281 280 279 279 277 275 273 270 267 264 262 259 257 255 253
302 303 303 304 304 304 305 304 304 304 304 303 302 301 300 299 298 297 295 294 293 292 291 291 290 287 285 283 282 281 280 279 278 276 274 271 268 265 262 260 258 256 254
304 305 305 306 306 306 306 306 306 305 305 304 303 302 301 300 299 298 296 295 294 293 292 291 290 288 286 285 284 282 280 279 278 277 275 272 269 266 263 260 258 256 253
306 306 307 307 308 308 307 307 307 306 305 304 303 302 301 300 299 298 297 296 294 293 292 291 290 289 288 287 285 284 282 280 278 277 275 273 270 267 264 259 256 254 252
307 308 309 309 309 309 309 308 308 307 306 305 304 303 302 300 299 298 297 296 295 294 293 291 291 290 289 287 286 285 283 281 279 277 275 273 271 268 265 262 258 255 252
309 309 310 310 310 310 310 309 308 307 307 306 305 304 302 300 299 298 297 296 295 295 294 293 292 291 289 288 286 285 284 283 281 278 275 272 270 268 265 262 259 257 254
310 311 311 311 311 311 310 309 308 308 307 306 305 304 302 301 299 298 297 296 295 294 293 293 292 291 290 288 286 285 284 283 282 280 277 274 270 268 265 263 261 258 255
311 312 312 312 312 311 310 309 308 308 307 306 305 304 302 301 300 299 298 297 295 294 293 293 292 292 291 289 287 285 285 284 283 280 278 275 271 267 265 263 261 258 256
312 312 313 312 312 311 310 309 308 308 307 307 306 304 303 302 301 300 299 298 296 295 293 292 292 291 290 289 287 286 285 284 284 281 278 275 272 268 266 263 261 259 258
Height
5827 5826 5825 5824 5823 5822 5821 5820 5819 5818 5818 5817 5816 5816 5816 5815 5815 5814 5814 5813 5812 5812 5811 5810 5810 5809 5809 5808 5808 5808 5807 5807 5807 5806 5806 5806 5806 5806 5806 5806 5806 5806 5806
5820 5819 5818 5817 5815 5814 5813 5812 5811 5810 5809 5808 5807 5807 5806 5806 5805 5805 5804 5804 5803 5802 5801 5800 5799 5799 5798 5798 5797 5797 5797 5796 5796 5796 5796 5795 5795 5795 5795 5795 5795 5795 5796
5813 5812 5811 5809 5808 5806 5805 5804 5802 5801 5800 5799 5798 5797 5796 5796 5795 5794 5794 5793 5792 5791 5790 5789 5788 5787 5786 5786 5785 5785 5785 5785 5784 5784 5784 5784 5784 5784 5784 5784 5784 5784 5784
5806 5805 5803 5801 5800 5798 5797 5795 5794 5792 5791 5790 5789 5788 5787 5786 5785 5784 5783 5782 5781 5780 5779 5777 5776 5775 5774 5773 5773 5772 5772 5772 5772 5771 5771 5771 5771 5771 5772 5772 5772 5772 5772
5799 5798 5796 5794 5792 5790 5789 5787 5785 5783 5782 5780 5779 5778 5777 5775 5774 5773 5772 5770 5769 5768 5767 5765 5764 5762 5761 5760 5759 5759 5758 5758 5757 5757 5758 5758 5758 5758 5758 5758 5759 5759 5760
5792 5790 5788 5786 5784 5782 5780 5778 5776 5774 5772 5770 5768 5767 5766 5765 5763 5762 5760 5758 5757 5755 5754 5752 5751 5749 5748 5746 5745 5744 5743 5743 5742 5742 5742 5743 5743 5743 5744 5744 5745 5745 5746
5784 5782 5780 5777 5775 5773 5771 5768 5766 5764 5762 5759 5757 5756 5756 5753 5751 5750 5748 5746 5745 5742 5740 5739 5737 5735 5734 5731 5730 5728 5727 5726 5726 5726 5726 5726 5727 5727 5728 5728 5729 5730 5731
5776 5774 5771 5769 5766 5764 5761 5758 5755 5753 5751 5747 5745 5743 5743 5744 5740 5738 5735 5733 5731 5729 5726 5724 5722 5720 5718 5716 5714 5712 5710 5709 5708 5708 5708 5708 5709 5709 5710 5711 5712 5713 5714
5768 5765 5762 5760 5757 5754 5751 5748 5744 5742 5739 5736 5732 5729 5727 5727 5726 5726 5723 5719 5716 5714 5712 5709 5706 5703 5700 5698 5696 5694 5692 5690 5689 5688 5688 5688 5689 5690 5691 5692 5694 5695 5696
5759 5756 5753 5750 5746 5743 5740 5737 5733 5730 5727 5724 5720 5715 5712 5709 5706 5707 5708 5704 5700 5696 5693 5691 5688 5685 5682 5679 5676 5674 5671 5669 5667 5667 5666 5667 5667 5669 5670 5671 5673 5675 5677
5750 5746 5743 5739 5736 5732 5728 5725 5721 5717 5713 5709 5705 5701 5697 5693 5688 5684 5684 5685 5682 5678 5673 5669 5666 5663 5660 5657 5654 5651 5648 5645 5644 5643 5643 5643 5644 5645 5647 5649 5651 5653 5655
5740 5736 5732 5728 5724 5720 5716 5712 5708 5703 5699 5694 5689 5684 5679 5675 5670 5664 5661 5660 5657 5656 5651 5647 5642 5637 5633 5630 5628 5626 5623 5620 5618 5617 5617 5617 5618 5620 5622 5624 5627 5630 5632
5730 5725 5721 5717 5712 5708 5703 5698 5694 5689 5683 5678 5673 5667 5661 5655 5649 5643 5637 5634 5631 5630 5626 5622 5615 5609 5604 5600 5598 5596 5595 5593 5590 5589 5589 5589 5591 5593 5595 5598 5601 5604 5608
5719 5714 5709 5705 5700 5694 5689 5684 5679 5673 5667 5661 5655 5648 5642 5635 5627 5620 5613 5607 5603 5603 5601 5597 5588 5580 5575 5570 5567 5564 5564 5563 5560 5559 5559 5560 5562 5564 5567 5571 5574 5578 5582
5707 5702 5697 5692 5686 5681 5675 5669 5663 5656 5650 5643 5636 5629 5621 5614 5605 5597 5589 5581 5574 5571 5574 5572 5562 5553 5546 5541 5537 5533 5533 5532 5530 5529 5529 5530 5532 5535 5539 5542 5547 5551 5556
5694 5689 5683 5678 5672 5665 5659 5653 5646 5639 5631 5624 5615 5607 5599 5590 5582 5573 5565 5557 5548 5540 5541 5545 5535 5527 5520 5515 5511 5507 5505 5504 5503 5502 5501 5502 5505 5508 5511 5516 5520 5524 5529
5681 5675 5669 5663 5656 5650 5642 5635 5627 5619 5611 5603 5594 5585 5576 5567 5559 5550 5542 5534 5526 5517 5512 5518 5511 5504 5497 5492 5489 5485 5483 5481 5480 5479 5477 5478 5479 5482 5486 5490 5494 5499 5504
5667 5660 5654 5647 5640 5632 5624 5616 5608 5599 5590 5581 5572 5562 5553 5544 5536 5528 5519 5512 5504 5496 5489 5490 5489 5483 5477 5472 5468 5466 5463 5461 5459 5458 5456 5456 5457 5460 5463 5466 5471 5476 5481
5652 5645 5638 5631 5623 5614 5606 5597 5588 5579 5569 5559 5550 5540 5531 5522 5514 5506 5498 5491 5484 5477 5470 5467 5467 5463 5459 5454 5450 5448 5445 5443 5440 5439 5438 5438 5438 5440 5442 5446 5450 5455 5460
5637 5630 5622 5613 5605 5596 5586 5577 5568 5558 5548 5538 5528 5519 5510 5501 5493 5486 5479 5472 5465 5459 5454 5449 5447 5445 5441 5437 5433 5430 5428 5426 5424 5422 5421 5421 5421 5422 5425 5428 5432 5436 5440
5621 5613 5605 5596 5586 5576 5566 5557 5547 5538 5528 5519 5509 5499 5490 5482 5474 5467 5460 5454 5448 5443 5438 5433 5430 5428 5425 5421 5417 5414 5411 5410 5409 5407 5405 5405 5405 5407 5408 5411 5414 5417 5422
5605 5596 5587 5578 5568 5557 5547 5536 5526 5517 5508 5499 5490 5481 5473 5464 5457 5450 5444 5438 5432 5427 5422 5418 5415 5412 5409 5405 5402 5399 5397 5395 5395 5394 5391 5392 5391 5392 5393 5395 5398 5401 5405
5589 5580 5570 5559 5549 5538 5527 5517 5506 5497 5489 5480 5471 5463 5455 5448 5440 5434 5428 5423 5417 5412 5407 5403 5400 5397 5394 5391 5387 5385 5383 5381 5380 5379 5378 5378 5378 5379 5380 5381 5383 5386 5390
5572 5562 5552 5541 5531 5520 5508 5498 5488 5479 5471 5462 5453 5445 5438 5432 5424 5418 5413 5409 5404 5399 5393 5389 5385 5382 5380 5377 5374 5372 5370 5369 5368 5367 5365 5365 5366 5366 5367 5368 5370 5373 5376
5554 5544 5534 5523 5512 5502 5490 5479 5469 5462 5454 5446 5437 5429 5422 5416 5409 5403 5398 5394 5390 5385 5380 5376 5372 5369 5367 5364 5361 5359 5357 5356 5355 5355 5353 5352 5353 5354 5355 5357 5358 5360 5362
5536 5526 5516 5505 5493 5483 5472 5462 5452 5444 5437 5430 5423 5415 5407 5400 5395 5389 5383 5379 5375 5372 5368 5364 5361 5357 5354 5352 5349 5347 5345 5343 5343 5343 5342 5341 5341 5341 5343 5345 5346 5348 5350